Location: Newark
(49.3000°N, 9.4667°E)
Time: 04:49:06
(UTC+00:00)

Transit 2A Rocket - Pass Details

Date: 26 May 2019
Orbit: 587 x 917 km, 66.7° (Epoch: 24 June)

Event Time Altitude Azimuth Distance (km) Brightness Sun altitude
Rises 21:10:35 0° 313° (NW) 3,531 10.0 -13.9°
Reaches altitude 10° 21:14:23 10° 336° (NNW) 2,549 9.1 -14.2°
Maximum altitude 21:17:42 15° 10° (N) 2,160 8.0 -14.5°
Drops below altitude 10° 21:20:54 10° 45° (NE) 2,446 7.8 -14.8°
Sets 21:24:25 0° 68° (ENE) 3,306 8.2 -15.0°
